Location: Monrovia
(34.7865°N, 86.7139°W)
Time: 00:09:11
(UTC+00:00)

Cosmos 2360 Rocket - Pass Details

Date: 14 July 2020
Orbit: 832 x 846 km, 71.0° (Epoch: 12 August)

Event Time Altitude Azimuth Distance (km) Brightness Sun altitude
Rises 10:07:29 0° 344° (NNW) 3,412 5.6 -7.4°
Reaches altitude 10° 10:10:01 10° 350° (N) 2,473 4.9 -7.0°
Maximum altitude 10:15:32 50° 65° (ENE) 1,062 3.3 -6.0°
Drops below altitude 10° 10:21:00 10° 141° (SE) 2,456 4.7 -5.1°
Sets 10:23:30 0° 146° (SSE) 3,386 5.4 -4.6°
